Location: Maynard F. Jordan Observatory
(44.9000°N, 68.6700°W)
Time: 15:56:07
(UTC-04:00)

Daily predictions for brighter satellites

Satellite Brightness Start Highest point End
(mag) Time Altitude Azimuth Time Altitude Azimuth Time Altitude Azimuth
Cosmos 909 Rocket 4.4 20:30:19 10° SSW 20:36:50 77° ESE 20:44:49 10° NE
Cosmos 1190 Rocket 4.0 20:33:18 10° NNW 20:38:31 76° ENE 20:43:43 10° SSE
Cosmos 2082 Rocket 4.0 20:35:34 10° N 20:39:39 20° NE 20:43:42 10° E
Sich 1 Rocket 4.1 20:35:53 10° SSE 20:40:12 42° E 20:44:31 10° NNE
Meteor 2-10 Rocket 4.1 20:38:47 10° NNW 20:44:36 73° W 20:50:16 10° S
Cosmos 2263 Rocket 4.0 20:39:35 10° WSW 20:44:50 38° NW 20:50:06 10° NNE
Cosmos 1862 4.2 20:45:23 10° SSE 20:49:00 32° E 20:52:39 10° NNE
SL-08 ROCKET BODY 4.4 20:46:42 10° S 20:52:43 87° E 20:58:41 10° N
Meteor 1-27 Rocket 3.7 20:55:03 10° N 21:00:38 69° ENE 21:06:07 10° SSE
CENTAUR R/B 4.0 20:54:14 10° NW 21:01:39 46° WSW 21:09:26 10° S
Cosmos 1975 Rocket 3.8 20:58:03 10° N 21:02:02 35° ENE 21:05:39 12° SE
Coronas F rocket 3.5 21:02:32 10° SW 21:04:53 28° WNW 21:07:15 10° NNW
Cosmos 1184 Rocket 3.7 21:05:38 11° SSE 21:08:28 31° E 21:11:29 10° NNE
Cosmos 676 Rocket 4.0 21:03:42 10° NNW 21:08:56 84° ENE 21:14:07 10° SSE
Cosmos 1606 2.7 21:07:20 10° N 21:11:19 86° E 21:15:14 10° S
CZ-4 SHROUD 3.5 21:08:53 14° SE 21:11:21 48° ENE 21:14:22 10° N
Cosmos 1174 3.2 21:09:42 10° NW 21:13:02 77° WSW 21:15:21 15° SSE
Cosmos 1908 Rocket 3.5 21:09:12 10° S 21:13:35 73° E 21:18:01 10° NNE
Cosmos 1782 3.6 21:09:50 10° NNW 21:13:46 52° W 21:17:41 10° S
deb Chang Zheng 4 3.6 21:09:53 10° NNE 21:14:19 88° ESE 21:18:45 10° SSW
Cosmos 1954 Rocket 4.0 21:09:13 10° NNW 21:14:26 74° ENE 21:19:08 13° SSE
Cosmos 2056 Rocket 4.2 21:09:27 10° SW 21:14:32 59° WNW 21:19:37 10° NNE
Cosmos 1378 Rocket 3.5 21:11:12 10° N 21:15:32 76° E 21:19:45 11° SSE
Cosmos 1733 Rocket 4.2 21:12:32 10° SSW 21:16:47 47° WNW 21:21:02 10° N
Cosmos 2154 Rocket 4.0 21:10:48 10° S 21:16:59 76° E 21:23:12 10° N
PSLV R/B 3.0 21:17:57 16° SSE 21:20:12 71° ENE 21:23:08 10° N
Cosmos 2084 3.3 21:18:21 10° SSW 21:22:04 48° ESE 21:25:47 10° NE
Cosmos 1939 Rocket 3.9 21:20:01 10° S 21:23:42 43° W 21:27:29 10° NNW
Nimbus 7 Rocket 4.4 21:19:28 10° NNE 21:25:26 87° ESE 21:31:26 10° SSW
USA 245 3.4 21:23:32 19° SE 21:25:39 50° ENE 21:29:34 10° N
Cosmos 1741 Rocket 4.5 21:21:07 10° N 21:26:10 47° ENE 21:29:51 18° SE
Cosmos 1238 Rocket 2.3 21:23:32 10° N 21:26:43 87° E 21:29:42 14° S
COS B Rocket 3.5 21:24:38 10° N 21:28:49 74° W 21:32:34 10° S
MetOp-B 4.1 21:25:52 11° SSE 21:30:58 89° WSW 21:36:22 10° NNW
SPOT 5 3.3 21:27:15 10° S 21:32:30 72° WSW 21:37:53 10° NNW
Terra 3.1 21:30:09 16° ESE 21:32:53 26° ENE 21:36:48 10° N
BREEZE-M DEB 4.3 21:29:14 10° SW 21:33:29 60° SSE 21:36:16 10° ENE
Cosmos 489 Rocket 4.4 21:28:12 10° NNW 21:34:27 82° ENE 21:39:23 17° SSE
SL-8 R/B 3.9 21:30:07 10° WSW 21:34:56 73° NNW 21:39:46 10° ENE
ISS -2.9 21:31:58 10° SSW 21:35:01 39° SE 21:38:06 10° ENE
Cosmos 1023 Rocket 4.4 21:36:42 10° NNW 21:41:51 86° ENE 21:45:25 20° SSE
H-2A R/B 3.4 21:39:18 10° SSW 21:43:15 35° W 21:47:09 10° NNW
COSMOS 2487 2.9 21:41:11 10° NNW 21:44:46 60° WSW 21:47:00 21° S
ARGOS 3.1 21:42:25 19° SSE 21:46:23 78° ENE 21:51:45 10° NNW
ATLAS 5 CENTAUR R/B 4.3 21:41:54 10° WNW 21:46:30 23° WSW 21:51:20 10° SSW
Cosmos 2366 rocket 4.4 21:42:15 18° SSE 21:46:33 45° E 21:52:31 10° NNE
APEX 3.8 21:44:24 19° S 21:46:57 45° ESE 21:51:45 10° NE
SL-08 RB Rocket 3.8 21:45:08 22° SSE 21:48:00 67° ENE 21:52:38 10° N
Envisat 4.3 21:44:18 10° SSW 21:48:58 36° W 21:53:40 10° NNW
BREEZE-M DEB (TANK) 3.6 21:44:02 10° WNW 21:56:12 63° SW 21:58:21 28° SE
Intercosmos 25 2.9 21:57:44 19° S 22:00:08 83° W 22:03:19 10° N
Cosmos 1420 Rocket 3.9 21:54:54 10° SSW 22:00:09 83° ESE 22:05:24 10° NNE
IGS 5A 4.1 22:03:23 30° ESE 22:04:51 41° ENE 22:08:47 10° N
Cosmos 1833 Rocket 2.9 21:59:49 10° NNW 22:05:22 58° ENE 22:08:17 28° SE
Cosmos 2278 Rocket 2.5 22:00:49 10° SSW 22:06:29 71° WNW 22:12:11 10° NNE
H-2A R/B 2.3 22:03:38 27° SE 22:06:32 63° ENE 22:11:47 10° N
Cosmos 614 Rocket 3.9 22:02:52 10° NNW 22:07:59 86° WSW 22:10:37 29° SSE
Meteor 1-14 Rocket 4.1 22:03:33 17° S 22:08:00 77° E 22:13:36 10° NNE
YAOGAN 6 4.1 22:06:45 15° SSW 22:09:04 31° W 22:12:15 10° NNW
Cosmos 1825 3.9 22:06:01 10° SW 22:09:29 32° WNW 22:12:58 10° N
Okean 2 Rocket 3.6 22:05:29 10° SSW 22:09:48 57° WNW 22:14:10 10° N
Cosmos 1408 4.4 22:08:09 10° SW 22:11:24 30° WNW 22:14:40 10° NNW
Cosmos 1844 Rocket 4.4 22:07:24 10° WSW 22:12:31 34° NW 22:17:39 10° N
Cosmos 2218 Rocket 4.0 22:07:30 17° S 22:12:34 80° E 22:19:00 10° N
BREEZE-M DEB (TANK) 4.2 22:10:55 10° W 22:14:10 57° N 22:24:00 10° ENE
Cosmos 1242 Rocket 3.7 22:11:54 10° NNW 22:15:21 40° W 22:17:13 22° SSW
Cosmos 1140 Rocket 4.1 22:10:38 10° NNW 22:15:34 48° WSW 22:18:40 22° S
USA 234 3.4 22:15:15 10° ENE 22:21:32 48° SE 22:27:46 10° SSW
SPOT 1/Viking Rocket 4.4 22:18:19 18° SSW 22:21:57 45° W 22:26:59 10° NNW
CZ-4 R/B 3.9 22:18:57 10° N 22:23:39 75° WNW 22:26:53 20° SSW
Cosmos 2082 Rocket 2.2 22:18:45 10° NNW 22:24:30 84° WSW 22:27:07 34° SSE
Cosmos 1727 Rocket 3.9 22:20:12 10° N 22:26:25 86° E 22:29:40 30° S
DELTA 2 DEB (DPAF) 4.2 22:25:13 35° S 22:27:03 73° WSW 22:31:32 10° NNW
CZ-4B R/B 4.1 22:22:31 10° N 22:27:22 54° WNW 22:32:05 10° SSW
Cosmos 1812 2.8 22:23:58 10° N 22:27:49 59° E 22:28:24 52° ESE
AVUM R/B 3.4 22:29:13 10° NNW 22:32:44 64° ENE 22:32:59 61° E
Cosmos 2297 3.9 22:34:39 10° SSW 22:40:21 73° WNW 22:46:07 10° NNE
Gbstr 26 Del rocket 3.5 22:37:47 10° WNW 22:42:45 57° NNE 22:44:31 33° E
CARTOSAT-1 3.7 22:41:40 44° SSW 22:42:54 66° WSW 22:47:13 10° NNW
Timation 1 Rocket 4.3 22:41:52 33° S 22:44:30 63° ESE 22:50:27 10° NNE
SAR-Lupe-2 3.4 22:45:43 81° SE 22:45:50 84° ENE 22:49:26 10° NNW
Meteor 2-19 Rocket 4.4 22:43:33 29° S 22:46:52 88° W 22:53:01 10° N
CZ-4C R/B 4.3 22:46:35 33° SW 22:47:39 40° W 22:51:31 10° NNW
Cosmos 1536 Rocket 4.3 22:48:25 10° NNW 22:52:44 47° W 22:54:12 34° SW
DMSP B5D2-2 4.2 22:54:12 10° N 22:59:25 72° WNW 23:01:53 32° SSW
Cosmos 1536 4.0 23:04:17 31° ENE 23:04:17 31° ENE 23:07:13 10° NNE
Cosmos 1821 Rocket 4.2 23:02:01 42° SE 23:03:44 54° E 23:09:46 10° NNE
Cosmos 1400 Rocket 3.7 23:05:06 37° ENE 23:05:06 37° ENE 23:08:26 10° NNE
BREEZE-M TANK 2.5 23:00:10 10° W 23:08:32 83° SSW 23:09:01 67° ESE
Meteor 1-19 Rocket 4.4 23:02:58 10° N 23:08:50 66° ENE 23:10:20 48° SE
BREEZE-M DEB (TANK) 3.3 23:07:44 10° WNW 23:10:09 43° NNE 23:15:51 10° E
USA 229 DEB 4.1 23:03:25 10° NW 23:10:17 53° WSW 23:12:49 37° S
USA 229 4.1 23:03:30 10° NW 23:10:23 54° WSW 23:12:55 37° S
Terra 2.8 23:09:02 31° SW 23:10:27 39° W 23:14:54 10° NNW
ISS -1.9 23:08:22 10° W 23:11:28 39° NNW 23:14:35 10° NE
Cosmos 2369 Rocket 3.1 23:15:46 32° E 23:15:46 32° E 23:20:27 10° NE
Cosmos 1503 Rocket 4.4 23:10:25 10° NNW 23:15:32 51° ENE 23:16:39 43° ESE
SL-8 R/B 4.3 23:13:07 10° WNW 23:17:53 56° N 23:21:15 19° ENE
Cosmos 2123 Rocket 4.3 23:12:13 10° N 23:18:24 55° ENE 23:20:03 43° SE
Cosmos 1934 Rocket 4.1 23:17:16 48° SE 23:18:35 58° E 23:24:30 10° NNE
Iridium 4 Rocket 3.8 23:13:40 10° N 23:19:32 74° E 23:20:57 53° SSE
Cosmos 1331 Rocket 4.1 23:20:06 40° SW 23:21:54 70° WNW 23:27:04 10° NNE
Meteor 2-21 Rocket 4.5 23:21:07 50° SSE 23:22:38 67° E 23:28:48 10° NNE
NOSS 3-1 (A) 4.1 23:21:20 10° NW 23:28:50 75° NE 23:32:31 36° SE
CZ-2C R/B 4.5 23:26:05 10° NE 23:29:07 16° E 23:29:07 16° E
Lacrosse 5 2.6 23:30:40 39° E 23:30:40 39° E 23:34:19 10° ENE
CZ-4B R/B 3.5 23:31:03 20° NE 23:31:03 20° NE 23:32:38 10° NNE
ASTEX 1 4.1 23:25:42 10° N 23:30:27 48° WNW 23:31:59 35° SW
ALOS 2 3.2 23:32:55 44° ENE 23:33:01 44° ENE 23:37:12 10° N
Meteor 2-21 4.4 23:32:08 48° SSW 23:34:00 84° W 23:40:16 10° N
Cosmos 1025 Rocket 3.0 23:30:52 10° N 23:35:16 83° W 23:35:16 83° W
Cosmos 1455 Rocket 4.0 23:37:12 35° ENE 23:37:12 35° ENE 23:40:35 10° NNE
Cosmos 1809 Rocket 4.5 23:35:17 47° SSW 23:37:12 79° W 23:43:26 10° N
Okean 1 Rocket 4.1 23:40:29 34° WSW 23:41:27 39° WNW 23:45:40 10° N
Meteor 1-5 Rocket 4.4 23:41:41 48° ESE 23:41:56 48° E 23:47:03 10° NNE
H-2A R/B 4.1 23:44:16 16° WSW 23:46:20 19° W 23:50:04 10° NW
Cosmos 1354 Rocket 3.8 23:42:45 10° NNW 23:48:02 84° WSW 23:48:32 73° S
Cosmos 1633 3.4 23:49:34 51° N 23:49:34 51° N 23:52:28 10° N
Cosmos 1833 Rocket 4.2 23:44:36 10° NW 23:48:51 22° W 23:49:59 21° WSW
ATLAS 2AS CENTAUR R/B 3.8 23:42:08 10° NNW 23:50:01 49° NE 23:55:27 20° ESE
